Flag Weather past 2 weeks in Newport News, Virginia, U.S.A.

Now
51 °F

Rain. Mostly cloudy.


Feels Like: 48 °F
Forecast: 37 / 51 °F
Wind: 9 mph from Northeast

Location: Newport News / Williamsburg International Airport

Current Time: Nov 26, 2014 at 4:04:46 AM

Latest Report: Nov 26, 2014 at 2:54 AM


Visibility: 2 mi

Pressure: 30.02 "Hg

Humidity: 83%

Dew point: 46 °F

Location of Newport NewsLocation

Historic Weather in Newport News — Graph

°F

Newport News temperature yesterday

Maximum temperature yesterday: 66 °F (at 12:54 AM)
Minimum temperature yesterday: 52 °F (at 9:54 PM)
Average temperature yesterday: 60 °F

Past Weeks' High & Low Weather Summary

 TemperatureHumidityPressure
High76 °F (Nov 24, 12:54 PM)90% (Nov 11, 3:54 AM)30.58 "Hg (Nov 11, 3:54 AM)
Low24 °F (Nov 22, 4:54 AM)26% (Nov 22, 1:54 PM)29.55 "Hg (Nov 17, 4:54 PM)
Average49 °F62%30.12 "Hg
* Reported Nov 11 2:54 AM — Nov 26 2:54 AM, Newport News, Weather by CustomWeather, © 2014

Note: Actual official high and low records may vary slightly from our data, if they occured in-between our weather recording intervals... More about our weather records

Advertising

Newport News weather history for previous 24 hours

 ConditionsComfort  
Time TempWeatherWind HumidityBarometerVisibility
2:54 AM
Nov 26
51 °FRain. Mostly cloudy.9 mph83%30.02 "Hg2 mi
1:54 AM52 °FRain. Fog.14 mph86%30.03 "Hg2 mi
1:01 AM53 °FRain. Overcast.9 mph83%30.07 "Hg2 mi
12:54 AM53 °FLight rain. Overcast.8 mph83%30.08 "Hg3 mi
11:54 PM
Nov 25
54 °FLight rain. Overcast.8 mph83%30.10 "Hg9 mi
10:54 PM53 °FLight rain. Overcast.6 mph83%30.12 "Hg6 mi
9:54 PM52 °FLight rain. Mostly cloudy.No wind83%30.14 "Hg7 mi
8:54 PM54 °FLight rain. Overcast.6 mph64%30.13 "Hg10 mi
7:54 PM55 °FPassing clouds.3 mph57%30.10 "Hg10 mi
6:54 PM54 °FLight rain. Passing clouds.7 mph62%30.09 "Hg10 mi
5:54 PM56 °FClear.3 mph53%30.10 "Hg10 mi
4:54 PM56 °FPartly cloudy.3 mph53%30.10 "Hg10 mi
3:54 PM56 °FPartly sunny.8 mph62%30.05 "Hg10 mi
2:54 PM58 °FOvercast.7 mph62%30.03 "Hg10 mi
1:54 PM58 °FOvercast.5 mph65%30.02 "Hg10 mi
12:54 PM59 °FOvercast.7 mph62%30.02 "Hg10 mi
11:54 AM65 °FMostly cloudy.3 mph78%30.03 "Hg10 mi
10:54 AM64 °FOvercast.5 mph81%30.03 "Hg9 mi
10:02 AM65 °FLight rain. Mostly cloudy.3 mph76%30.04 "Hg9 mi
9:54 AM65 °FLight rain. Cloudy.3 mph76%30.02 "Hg6 mi
8:54 AM65 °FOvercast.8 mph76%30.01 "Hg10 mi
7:54 AM64 °FSunny.7 mph78%29.98 "Hg10 mi
6:54 AM63 °FSunny.8 mph78%29.96 "Hg10 mi
5:54 AM63 °FClear.8 mph78%29.93 "Hg10 mi
4:54 AM64 °FPassing clouds.7 mph75%29.94 "Hg10 mi
Weather by CustomWeather, © 2014

See weather overviewHow to use our weather pages